Flag for U.S.A. Weather past 2 weeks in Talkeetna, Alaska, U.S.A.

Now
37 °F

Mostly cloudy.


Feels Like: 32 °F
Forecast: 29 / 49 °F
Wind: 6 mph from North

Location: Talkeetna Weather Reporting Station

Current Time: Mar 30, 2015 at 8:49:17 AM

Latest Report: Mar 30, 2015 at 7:53 AM


Visibility: 10 mi

Pressure: 29.62 "Hg

Humidity: 50%

Dew point: 20 °F

Location of TalkeetnaLocation

Historic Weather in Talkeetna — Graph

°F

Talkeetna temperature yesterday

Maximum temperature yesterday: 48 °F (at 4:53 PM)
Minimum temperature yesterday: 26 °F (at 3:53 AM)
Average temperature yesterday: 36 °F

Past Weeks' High & Low Weather Summary

 TemperatureHumidityPressure
High51 °F (Mar 20, 5:53 PM)96% (Mar 27, 2:53 AM)30.02 "Hg (Mar 27, 2:53 AM)
Low-8 °F (Mar 15, 7:53 AM)24% (Mar 20, 5:53 PM)29.35 "Hg (Mar 26, 8:53 AM)
Average33 °F56%29.72 "Hg
* Reported Mar 15 7:53 AM — Mar 30 7:53 AM, Talkeetna, Weather by CustomWeather, © 2015

Note: Actual official high and low records may vary slightly from our data, if they occured in-between our weather recording intervals... More about our weather records

Advertising

Talkeetna weather history for previous 24 hours

 ConditionsComfort  
Time TempWeatherWind HumidityBarometerVisibility
7:53 AM
Mon, Mar 30
37 °FMostly cloudy.6 mph50%29.62 "Hg10 mi
6:53 AM36 °FOvercast.5 mph54%29.61 "Hg10 mi
5:53 AM35 °FMostly cloudy.3 mph59%29.61 "Hg10 mi
4:53 AM32 °FMostly cloudy.No wind75%29.61 "Hg10 mi
3:53 AM31 °FMostly cloudy.No wind79%29.60 "Hg10 mi
2:53 AM30 °FPassing clouds.No wind79%29.59 "Hg10 mi
1:53 AM31 °FPassing clouds.3 mph76%29.57 "Hg10 mi
12:53 AM31 °FPassing clouds.No wind79%29.57 "Hg10 mi
11:53 PM
Sun, Mar 29
33 °FPassing clouds.No wind70%29.55 "Hg10 mi
10:53 PM34 °FClear.No wind67%29.53 "Hg10 mi
9:53 PM35 °FClear.No wind64%29.51 "Hg10 mi
8:53 PM39 °FSunny.No wind53%29.49 "Hg10 mi
7:53 PM43 °FPassing clouds.No wind42%29.47 "Hg10 mi
6:53 PM47 °FCloudy.5 mph29%29.44 "Hg10 mi
5:53 PM48 °FOvercast.8 mph28%29.43 "Hg10 mi
4:53 PM48 °FPartly sunny.7 mph28%29.43 "Hg10 mi
3:53 PM46 °FBroken clouds.6 mph30%29.43 "Hg10 mi
2:53 PM44 °FMostly cloudy.6 mph32%29.42 "Hg10 mi
1:53 PM43 °FOvercast.9 mph32%29.41 "Hg10 mi
12:53 PM39 °FOvercast.3 mph41%29.41 "Hg10 mi
11:53 AM38 °FPassing clouds.3 mph39%29.39 "Hg10 mi
10:53 AM34 °FOvercast.6 mph46%29.39 "Hg10 mi
9:53 AM30 °FBroken clouds.6 mph54%29.39 "Hg10 mi
8:53 AM30 °FPartly sunny.3 mph54%29.38 "Hg10 mi
Weather by CustomWeather, © 2015

See weather overviewHow to use our weather pages